Details From LOWW - Wien Schwechat
To LJLJ - Ljubljana
Flight Number -
Tags Generated
Created
Modified
Stats Distance 143 nm / 265 km
Max Altitude 0 ft / 0 m
Waypoints 2
Social Downloads 10
Likes 0
Share VATSIM

Download

Looking for another format? Having issues loading an existing format? Contact us
Advertisement - Login to hide

Notes

Generated

Route

LOWW LJLJ

ID Type Via Altitude Latitude Longitude Leg Dist Tot Dist Heading (true) Name
O LOWW APT - 0 ft / 0 m 48.11978˚ 16.57818˚ - 0 nm - -
O LJLJ APT - 0 ft / 0 m 46.23249˚ 14.44039˚ 143 nm 143 nm 218° / 217° -

Altitude Profile

Advertisement - Login to hide

LOWW

Details ICAO LOWW (VIE)
Name Wien Schwechat
Region Austria
Timezone Europe/Vienna (UTC+1.0)
Stats Elevation 600 ft / 183 m (AMSL)
Location 48.110068° 16.569637°
Runways 2
Magnetic Variation 4.248° E

METAR

LOWW 181850Z 27009KT 9999 FEW022 SCT059 BKN170 05/01 Q1017 NOSIG

Decode

TAF

TAF LOWW 181715Z 1818/1924 27010KT 9999 FEW030 BKN070 TX06/1912Z TN04/1902Z TEMPO 1904/1912 29015G25KT SHRA FEW030TCU BKN040 PROB30 TEMPO 1906/1912 30020G30KT SHGS BKN020 SCT030CB BECMG 1912/1914 28015G25KT BECMG 1921/1923 29020G30KT

Decode

Departure Runways

ID Width Length Bearing (true) Bearing (mag) Surface Threshold Offset Overrun Length
11 148 ft / 45 m 11,457 ft / 3,492 m 115.99° 111.74° Asphalt 0 ft / 0 m 0 ft / 0 m
16 148 ft / 45 m 11,811 ft / 3,600 m 164.23° 159.98° Asphalt 0 ft / 0 m 33 ft / 10 m
29 148 ft / 45 m 11,457 ft / 3,492 m 296.03° 291.78° Asphalt 0 ft / 0 m 0 ft / 0 m
34 148 ft / 45 m 11,811 ft / 3,600 m 344.24° 339.99° Asphalt 0 ft / 0 m 0 ft / 0 m

LJLJ

Details ICAO LJLJ (LJU)
Name LJUBLJANA
Region Slovenia
Timezone Europe/Ljubljana (UTC+1.0)
Stats Elevation 1,273 ft / 388 m (AMSL)
Location 46.223685° 14.457608°
Runways 1
Magnetic Variation 3.653° E

METAR

LJLJ 181900Z 28005KT 9999 FEW022 02/01 Q1018 NOSIG

Decode

TAF

TAF LJLJ 181400Z 1815/1915 VRB01KT 7000 FEW005 OVC013 TEMPO 1815/1824 FEW010 BKN025 PROB40 TEMPO 1818/1915 3500 BR OVC007 PROB30 1900/1909 0500 FG VV001 BECMG 1911/1914 12005KT FEW020 SCT070

Decode

Destination Runways

ID Width Length Bearing (true) Bearing (mag) Surface Threshold Offset Overrun Length
13 148 ft / 45 m 10,811 ft / 3,295 m 126.47° 122.82° Asphalt 0 ft / 0 m 0 ft / 0 m
31 148 ft / 45 m 10,811 ft / 3,295 m 306.49° 302.84° Asphalt 0 ft / 0 m 0 ft / 0 m

Approach Navaids

Runway Type Ident Frequency Range Bearing (true) Bearing (mag) Slope Elevation
31 Localiser LJB 110.50 MHz 18 nm / 33 km 306.46° 302.81° - 1,282 ft / 391 m (AMSL)
31 Glidescope LJB 110.50 MHz 10 nm / 19 km 306.48° 302.83° 3.00° 1,198 ft / 365 m (AMSL)
31 DME LJB 110.50 MHz 18 nm / 33 km - - - 1,198 ft / 365 m (AMSL)

Popular Alternatives